Location: Newark
(23.1300°N, 73.6109°E)
Time: 06:21:12
(UTC+00:00)

Hubble Space Telescope - Pass Details

Date: 02 August 2021
Orbit: 535 x 539 km, 28.5° (Epoch: 19 September)

Event Time Altitude Azimuth Distance (km) Brightness Sun altitude
Rises 14:15:58 0° 289° (WNW) 2,671 7.0 -7.1°
Reaches altitude 10° 14:18:14 10° 292° (WNW) 1,779 5.2 -7.6°
Maximum altitude 14:22:20 67° 15° (NNE) 577 1.0 -8.4°
Enters shadow 14:26:12 11° 98° (E) 1,690 2.7 -9.2°
